Location: Follega
(52.8850°N, 5.7362°E)
Time: 22:21:24
(UTC+00:00)

STARLINK-1236 - Pass Details

Date: 01 October 2020
Orbit: 548 x 551 km, 53.0° (Epoch: 26 October)

Event Time Altitude Azimuth Distance (km) Brightness Sun altitude
Exits shadow 01:37:30 12° 83° (E) 1,719 6.6 -33.6°
Drops below altitude 10° 01:37:47 10° 83° (E) 1,830 6.8 -33.5°
Sets 01:40:02 0° 83° (E) 2,725 7.8 -33.3°
